Location: Apeadero de Los Molinos-Guadarrama
(40.7091°N, 4.0689°W)
Time: 11:35:41
(UTC+00:00)

CZ-3C R/B - Pass Details

Date: 14 May 2021
Orbit: 266 x 33503 km, 20.8° (Epoch: 18 June)

Event Time Altitude Azimuth Distance (km) Brightness Sun altitude
Rises 13:09:10 0° 221° (SW) 17,439 8.8 64.9°
Reaches altitude 10° 13:33:17 10° 216° (SW) 21,290 9.4 62.1°
Maximum altitude 21:41:20 37° 212° (SSW) 4,898 5.4 -20.8°
Enters shadow 21:48:08 25° 167° (SSE) 3,514 4.3 -21.6°
